• In Hungary
  • List of Countries
  • For 7 days
  • Water Temperature
  • Satellite Maps
  • Weather Map
  • News
  • Weather Widgets
  • user-avatar
    Login

    Hourly Weather Ciutadella

    Today, 23 September, Sunday

    Time Temperature Precipitation Wind Pressure Humidity
    00:00 +26°C° 0 mm 3 mps 765 mmHg 76%
    01:00 +26°C° 0 mm 3 mps 765 mmHg 76%
    02:00 +26°C° 0 mm 3 mps 765 mmHg 76%
    03:00 +26°C° 0 mm 3 mps 764 mmHg 77%
    04:00 +26°C° 0 mm 3 mps 764 mmHg 77%
    05:00 +26°C° 0 mm 2 mps 764 mmHg 78%
    06:00 +26°C° 0 mm 2 mps 764 mmHg 79%
    07:00 +27°C° 0 mm 2 mps 765 mmHg 73%
    08:00 +28°C° 0 mm 2 mps 765 mmHg 67%
    09:00 +29°C° 0 mm 2 mps 765 mmHg 62%
    10:00 +30°C° 0 mm 2 mps 765 mmHg 58%
    11:00 +31°C° 0 mm 2 mps 765 mmHg 54%
    12:00 +31°C° 0 mm 2 mps 765 mmHg 51%
    13:00 +31°C° 0 mm 2 mps 765 mmHg 50%
    14:00 +31°C° 0 mm 2 mps 764 mmHg 49%
    15:00 +31°C° 0 mm 3 mps 764 mmHg 47%
    16:00 +30°C° 0 mm 3 mps 764 mmHg 52%
    17:00 +29°C° 0 mm 3 mps 764 mmHg 57%
    18:00 +28°C° 0 mm 3 mps 763 mmHg 62%
    19:00 +28°C° 0 mm 3 mps 764 mmHg 64%
    20:00 +27°C° 0 mm 3 mps 764 mmHg 65%
    21:00 +27°C° 0 mm 3 mps 764 mmHg 67%
    22:00 +27°C° 0 mm 2 mps 764 mmHg 68%
    23:00 +27°C° 0 mm 2 mps 764 mmHg 69%

    Tomorrow, 24 September, Monday

    Time Temperature Precipitation Wind Pressure Humidity
    00:00 +26°C° 0 mm 2 mps 764 mmHg 70%
    01:00 +26°C° 0 mm 2 mps 764 mmHg 71%
    02:00 +26°C° 0 mm 2 mps 764 mmHg 72%
    03:00 +26°C° 0 mm 2 mps 764 mmHg 73%
    04:00 +26°C° 0 mm 3 mps 764 mmHg 73%
    05:00 +26°C° 0 mm 4 mps 764 mmHg 73%
    06:00 +26°C° 0 mm 5 mps 764 mmHg 72%
    07:00 +27°C° 0 mm 6 mps 764 mmHg 68%
    08:00 +28°C° 0 mm 6 mps 765 mmHg 64%
    09:00 +29°C° 0 mm 7 mps 765 mmHg 60%
    10:00 +29°C° 0 mm 7 mps 765 mmHg 60%
    11:00 +29°C° 0 mm 7 mps 765 mmHg 59%
    12:00 +29°C° 0 mm 7 mps 765 mmHg 59%
    13:00 +29°C° 0 mm 7 mps 764 mmHg 59%
    14:00 +28°C° 0 mm 7 mps 764 mmHg 59%
    15:00 +28°C° 0 mm 7 mps 764 mmHg 59%
    16:00 +28°C° 0 mm 7 mps 764 mmHg 58%
    17:00 +27°C° 0 mm 8 mps 764 mmHg 56%
    18:00 +27°C° 0 mm 8 mps 764 mmHg 55%
    19:00 +27°C° 0 mm 8 mps 764 mmHg 52%
    20:00 +27°C° 0 mm 8 mps 765 mmHg 50%
    21:00 +27°C° 0 mm 9 mps 765 mmHg 47%
    22:00 +26°C° 0 mm 9 mps 765 mmHg 48%
    23:00 +26°C° 0 mm 9 mps 765 mmHg 50%

    Day after tomorrow, 25 September, Tuesday

    Time Temperature Precipitation Wind Pressure Humidity
    00:00 +24°C° 0 mm 8 mps 765 mmHg 51%
    01:00 +24°C° 0 mm 9 mps 765 mmHg 51%
    02:00 +24°C° 0 mm 9 mps 765 mmHg 51%
    03:00 +23°C° 0 mm 9 mps 765 mmHg 51%
    04:00 +23°C° 0 mm 9 mps 765 mmHg 56%
    05:00 +23°C° 0 mm 9 mps 765 mmHg 60%
    06:00 +23°C° 0 mm 9 mps 765 mmHg 65%
    07:00 +24°C° 0 mm 9 mps 765 mmHg 65%
    08:00 +26°C° 0 mm 8 mps 766 mmHg 66%
    09:00 +27°C° 0 mm 8 mps 766 mmHg 66%
    10:00 +28°C° 0 mm 8 mps 766 mmHg 64%
    11:00 +28°C° 0 mm 8 mps 766 mmHg 63%
    12:00 +29°C° 0 mm 8 mps 766 mmHg 61%
    13:00 +28°C° 0.3 mm 8 mps 766 mmHg 63%
    14:00 +28°C° 0.3 mm 7 mps 765 mmHg 64%
    15:00 +27°C° 0.3 mm 7 mps 765 mmHg 66%
    16:00 +26°C° 0.4 mm 7 mps 765 mmHg 69%
    17:00 +26°C° 0.4 mm 7 mps 765 mmHg 72%
    18:00 +24°C° 0.4 mm 7 mps 765 mmHg 76%
    19:00 +24°C° 0.5 mm 7 mps 766 mmHg 74%
    20:00 +24°C° 0.5 mm 7 mps 766 mmHg 73%
    21:00 +24°C° 0.5 mm 8 mps 766 mmHg 71%
    22:00 +24°C° 0.2 mm 8 mps 766 mmHg 72%
    23:00 +24°C° 0.2 mm 8 mps 766 mmHg 73%

    26 September, Wednesday

    Time Temperature Precipitation Wind Pressure Humidity
    00:00 +24°C° 0.2 mm 8 mps 766 mmHg 74%
    01:00 +24°C° 0.1 mm 8 mps 766 mmHg 74%
    02:00 +24°C° 0.1 mm 8 mps 766 mmHg 74%
    03:00 +24°C° 0.1 mm 8 mps 766 mmHg 75%
    04:00 +24°C° 0.3 mm 8 mps 766 mmHg 75%
    05:00 +24°C° 0.3 mm 8 mps 767 mmHg 75%
    06:00 +24°C° 0.3 mm 8 mps 767 mmHg 74%
    07:00 +24°C° 0.5 mm 8 mps 767 mmHg 72%
    08:00 +26°C° 0.5 mm 8 mps 768 mmHg 69%
    09:00 +27°C° 0.5 mm 8 mps 768 mmHg 67%
    10:00 +27°C° 0.2 mm 8 mps 768 mmHg 66%
    11:00 +28°C° 0.2 mm 8 mps 768 mmHg 64%
    12:00 +28°C° 0.2 mm 8 mps 768 mmHg 63%
    13:00 +28°C° 0 mm 8 mps 768 mmHg 62%
    14:00 +28°C° 0 mm 8 mps 768 mmHg 62%
    15:00 +28°C° 0 mm 8 mps 768 mmHg 61%
    16:00 +27°C° 0 mm 7 mps 768 mmHg 64%
    17:00 +26°C° 0 mm 7 mps 768 mmHg 66%
    18:00 +24°C° 0 mm 7 mps 769 mmHg 69%
    19:00 +24°C° 0 mm 7 mps 769 mmHg 69%
    20:00 +24°C° 0 mm 6 mps 769 mmHg 70%
    21:00 +24°C° 0 mm 6 mps 770 mmHg 70%
    22:00 +24°C° 0 mm 6 mps 769 mmHg 70%
    23:00 +24°C° 0 mm 6 mps 769 mmHg 70%

    27 September, Thursday

    Time Temperature Precipitation Wind Pressure Humidity
    00:00 +24°C° 0 mm 6 mps 769 mmHg 71%
    01:00 +24°C° 0 mm 6 mps 769 mmHg 71%
    02:00 +25°C° 0 mm 5 mps 769 mmHg 72%
    03:00 +25°C° 0 mm 5 mps 769 mmHg 72%
    04:00 +25°C° 0 mm 5 mps 769 mmHg 73%
    05:00 +25°C° 0 mm 5 mps 769 mmHg 74%
    06:00 +25°C° 0 mm 5 mps 769 mmHg 74%
    07:00 +26°C° 0 mm 5 mps 769 mmHg 70%
    08:00 +26°C° 0 mm 5 mps 769 mmHg 67%
    09:00 +27°C° 0 mm 5 mps 769 mmHg 63%
    10:00 +28°C° 0 mm 5 mps 769 mmHg 60%
    11:00 +28°C° 0 mm 5 mps 769 mmHg 58%
    12:00 +29°C° 0 mm 5 mps 769 mmHg 56%
    13:00 +29°C° 0 mm 5 mps 769 mmHg 57%
    14:00 +28°C° 0 mm 4 mps 768 mmHg 57%
    15:00 +28°C° 0 mm 4 mps 768 mmHg 58%
    16:00 +27°C° 0 mm 4 mps 768 mmHg 61%
    17:00 +26°C° 0 mm 4 mps 768 mmHg 64%
    18:00 +25°C° 0 mm 4 mps 767 mmHg 68%
    19:00 +25°C° 0 mm 3 mps 767 mmHg 68%
    20:00 +25°C° 0 mm 3 mps 768 mmHg 69%
    21:00 +25°C° 0 mm 3 mps 768 mmHg 69%
    22:00 +24°C° 0 mm 3 mps 767 mmHg 69%
    23:00 +24°C° 0 mm 2 mps 767 mmHg 70%

    28 September, Friday

    Time Temperature Precipitation Wind Pressure Humidity
    00:00 +24°C° 0 mm 2 mps 766 mmHg 70%
    01:00 +24°C° 0 mm 2 mps 766 mmHg 70%
    02:00 +23°C° 0 mm 2 mps 766 mmHg 71%
    03:00 +23°C° 0 mm 1 mps 765 mmHg 71%
    04:00 +23°C° 0 mm 1 mps 765 mmHg 72%
    05:00 +23°C° 0 mm 1 mps 765 mmHg 72%
    06:00 +23°C° 0 mm 1 mps 765 mmHg 73%
    07:00 +24°C° 0 mm 1 mps 765 mmHg 66%
    08:00 +26°C° 0 mm 1 mps 765 mmHg 60%
    09:00 +27°C° 0 mm 1 mps 765 mmHg 54%
    10:00 +28°C° 0 mm 1 mps 765 mmHg 51%
    11:00 +29°C° 0 mm 1 mps 765 mmHg 48%
    12:00 +30°C° 0 mm 1 mps 765 mmHg 45%
    13:00 +29°C° 0 mm 1 mps 764 mmHg 46%
    14:00 +29°C° 0 mm 1 mps 764 mmHg 46%
    15:00 +29°C° 0 mm 1 mps 763 mmHg 47%
    16:00 +28°C° 0 mm 1 mps 763 mmHg 51%
    17:00 +26°C° 0 mm 1 mps 763 mmHg 54%
    18:00 +25°C° 0 mm 1 mps 763 mmHg 58%
    19:00 +25°C° 0 mm 2 mps 763 mmHg 59%
    20:00 +25°C° 0 mm 2 mps 763 mmHg 60%
    21:00 +25°C° 0 mm 2 mps 763 mmHg 62%
    22:00 +25°C° 0 mm 3 mps 762 mmHg 64%
    23:00 +25°C° 0 mm 3 mps 762 mmHg 67%
    Show more